{"data":{"norad_id":45426,"intl_designator":"2020-020C","name":"ONEWEB-0080","alt_names":[],"object_type":"PAYLOAD","status":"ACTIVE","operator":null,"country":"UK","launch_date":"2020-03-21","launch_site_code":"TYMSC","launch_vehicle":null,"mission":null,"orbit_class":"UNKNOWN","rcs_meters":null,"size_class":null,"mass_kg":null,"dimensions":null,"purposes":["comms"],"wikipedia_slug":null,"has_3d_model":false,"image_url":null,"decayed_at":null,"tle_current":{"epoch":"2026-09-20T00:30:16.825248Z","epoch_age_seconds":56147,"freshness":"FRESH","line1":"1 45426U 20020C   26263.02102807  .00000091  00000+0  22199-3 0  9999","line2":"2 45426  87.8979   2.2245 0001555  95.1033 265.0272 13.11417194315132","mean_motion":13.11417194,"eccentricity":0.0001555,"inclination_deg":87.8979,"raan_deg":2.2245,"arg_perigee_deg":95.1033,"mean_anomaly_deg":265.0272,"bstar":0.00022199,"rev_number":31513,"period_min":109.8048741917,"perigee_km":1216.5005870766,"apogee_km":1218.8628867037,"semimajor_km":7595.8187368901,"source":"CELESTRAK","updated_at":"2026-09-20T09:00:44.552367Z"}}}